Weather in Cobija

Bolivia     11°01′19″S   68°45′28″W
temp.,
°C
wind,
m/s
gust,
m/s
humid.,
%
clouds,
%
prec.,
mm/h
press.,
hPa
HPBL,
m
24 july, sat
sat2423:00+22ne11545 0.0 101311
02:00+20wnw11611 0.0 101311
05:00+19nnw01665 0.0 101311
08:00+21w11620 0.0 101545
11:00+33w11300 0.0 10151059
14:00+36nnw13225 0.0 10112768
17:00+35nw12231 0.0 10092794
20:00+25nw11420 0.0 101011
25 july, sun
sun2523:00+23wsw11490 0.0 101111
02:00+21wnw11525 0.0 101111
05:00+20s11565 0.0 101111
08:00+22wsw00543 0.0 101439
11:00+34w01260 0.0 1014770
14:00+37nnw12220 0.0 10102871
17:00+35nnw122451 0.0 10072976
20:00+29nnw1138100 0.0 100911
26 july, mon
mon2623:00+28w124271 0.0 101051
02:00+24nw11502 0.0 101012
05:00+22wsw12535 0.0 101031
08:00+23nw11554 0.0 101362
11:00+34nw23310 0.0 10131126
14:00+37nw23240 0.0 10093121
17:00+36nw232422 0.0 10072960
20:00+29nnw163973 0.0 1008139
27 july, tue
tue2723:00+25nnw13510 0.0 101061
02:00+24nnw28630 0.0 1010163
05:00+22w11740 0.0 101018
08:00+24wnw17683 0.0 1013179
11:00+34wnw24365 0.0 10121310
14:00+38nw232431 0.0 10093264
17:00+36w132981 0.0 1006478
20:00+32nnw133698 0.0 100868
28 july, wed
wed2823:00+29n2546100 0.1 100998
02:00+26n14578 0.2 101087
05:00+20w23935 1.8 101046
08:00+21s249511 3.4 1013118
11:00+29sse235522 1.3 1015868
14:00+33s224081 1.3 10112145
17:00+30sse354951 0.1 1009908
20:00+24se266099 0.3 1013322